When you browse on this site, cookies collect data to enhance your experience and personalize the content and advertising you see.
Visit our Privacy Policy to learn more. By continuing to use the site, you agree to this use of cookies and data.
  • In Italy
  • List of Countries
  • For 7 days
  • Water Temperature
  • Satellite Maps
  • Weather Map
  • Weather Widgets
  • user-avatar
    Login

    Hourly Weather Bansko

    Today, 22 March, Friday

    Time Temperature Precipitation Wind Pressure Humidity
    00:00 +9°C° 0 mm 1 mps 730 mmHg 83%
    01:00 +8°C° 0 mm 1 mps 730 mmHg 84%
    02:00 +8°C° 0 mm 1 mps 730 mmHg 85%
    03:00 +7°C° 0 mm 1 mps 730 mmHg 86%
    04:00 +7°C° 0 mm 1 mps 730 mmHg 87%
    05:00 +7°C° 0 mm 1 mps 730 mmHg 88%
    06:00 +8°C° 0 mm 1 mps 730 mmHg 84%
    07:00 +8°C° 0 mm 1 mps 730 mmHg 80%
    08:00 +9°C° 0 mm 1 mps 730 mmHg 77%
    09:00 +11°C° 0 mm 1 mps 730 mmHg 68%
    10:00 +13°C° 0 mm 2 mps 730 mmHg 59%
    11:00 +14°C° 0 mm 2 mps 730 mmHg 50%
    12:00 +15°C° 0 mm 2 mps 729 mmHg 47%
    13:00 +16°C° 0 mm 2 mps 729 mmHg 43%
    14:00 +18°C° 0 mm 2 mps 728 mmHg 38%
    15:00 +18°C° 0 mm 2 mps 728 mmHg 39%
    16:00 +17°C° 0 mm 2 mps 727 mmHg 40%
    17:00 +17°C° 0 mm 3 mps 727 mmHg 41%
    18:00 +15°C° 0 mm 2 mps 727 mmHg 47%
    19:00 +13°C° 0 mm 2 mps 727 mmHg 53%
    20:00 +10°C° 0 mm 2 mps 727 mmHg 59%
    21:00 +10°C° 0 mm 2 mps 727 mmHg 61%
    22:00 +10°C° 0 mm 1 mps 727 mmHg 63%
    23:00 +10°C° 0 mm 1 mps 727 mmHg 65%

    Tomorrow, 23 March, Saturday

    Time Temperature Precipitation Wind Pressure Humidity
    00:00 +9°C° 0 mm 1 mps 727 mmHg 67%
    01:00 +9°C° 0 mm 1 mps 727 mmHg 68%
    02:00 +9°C° 0 mm 1 mps 727 mmHg 70%
    03:00 +8°C° 0 mm 1 mps 727 mmHg 70%
    04:00 +8°C° 0 mm 1 mps 726 mmHg 71%
    05:00 +8°C° 0 mm 1 mps 726 mmHg 72%
    06:00 +9°C° 0 mm 1 mps 726 mmHg 68%
    07:00 +10°C° 0 mm 1 mps 727 mmHg 64%
    08:00 +11°C° 0 mm 1 mps 727 mmHg 61%
    09:00 +12°C° 0 mm 1 mps 726 mmHg 54%
    10:00 +14°C° 0 mm 2 mps 726 mmHg 47%
    11:00 +16°C° 0 mm 2 mps 726 mmHg 40%
    12:00 +17°C° 0 mm 2 mps 726 mmHg 39%
    13:00 +18°C° 0 mm 2 mps 725 mmHg 38%
    14:00 +19°C° 0 mm 3 mps 725 mmHg 36%
    15:00 +18°C° 0 mm 3 mps 724 mmHg 38%
    16:00 +18°C° 0 mm 3 mps 724 mmHg 39%
    17:00 +18°C° 0 mm 3 mps 724 mmHg 41%
    18:00 +16°C° 0 mm 3 mps 724 mmHg 47%
    19:00 +14°C° 0 mm 2 mps 724 mmHg 53%
    20:00 +12°C° 0 mm 2 mps 724 mmHg 59%
    21:00 +10°C° 0 mm 2 mps 724 mmHg 61%
    22:00 +10°C° 0 mm 2 mps 725 mmHg 64%
    23:00 +10°C° 0 mm 1 mps 725 mmHg 66%

    Day after tomorrow, 24 March, Sunday

    Time Temperature Precipitation Wind Pressure Humidity
    00:00 +10°C° 0 mm 1 mps 725 mmHg 68%
    01:00 +9°C° 0 mm 1 mps 725 mmHg 70%
    02:00 +9°C° 0 mm 1 mps 725 mmHg 71%
    03:00 +8°C° 0 mm 1 mps 725 mmHg 73%
    04:00 +8°C° 0 mm 1 mps 725 mmHg 74%
    05:00 +7°C° 0 mm 0 mps 725 mmHg 75%
    06:00 +9°C° 0 mm 1 mps 725 mmHg 73%
    07:00 +10°C° 0 mm 1 mps 725 mmHg 71%
    08:00 +11°C° 0 mm 1 mps 725 mmHg 68%
    09:00 +13°C° 0 mm 2 mps 725 mmHg 61%
    10:00 +14°C° 0 mm 2 mps 725 mmHg 54%
    11:00 +16°C° 0 mm 3 mps 725 mmHg 47%
    12:00 +17°C° 0 mm 3 mps 725 mmHg 44%
    13:00 +18°C° 0 mm 3 mps 724 mmHg 40%
    14:00 +18°C° 0 mm 3 mps 724 mmHg 36%
    15:00 +18°C° 0 mm 3 mps 723 mmHg 37%
    16:00 +18°C° 0 mm 3 mps 723 mmHg 37%
    17:00 +17°C° 0 mm 3 mps 723 mmHg 38%
    18:00 +16°C° 0 mm 2 mps 723 mmHg 42%
    19:00 +14°C° 0 mm 2 mps 723 mmHg 47%
    20:00 +12°C° 0 mm 1 mps 723 mmHg 52%
    21:00 +11°C° 0 mm 1 mps 723 mmHg 53%
    22:00 +11°C° 0 mm 1 mps 723 mmHg 54%
    23:00 +10°C° 0 mm 1 mps 723 mmHg 56%

    25 March, Monday

    Time Temperature Precipitation Wind Pressure Humidity
    00:00 +10°C° 0 mm 1 mps 723 mmHg 57%
    01:00 +9°C° 0 mm 1 mps 723 mmHg 58%
    02:00 +9°C° 0 mm 1 mps 722 mmHg 60%
    03:00 +9°C° 0 mm 1 mps 722 mmHg 60%
    04:00 +8°C° 0 mm 1 mps 722 mmHg 61%
    05:00 +8°C° 0 mm 1 mps 721 mmHg 62%
    06:00 +9°C° 0 mm 1 mps 721 mmHg 60%
    07:00 +9°C° 0 mm 0 mps 722 mmHg 58%
    08:00 +11°C° 0 mm 0 mps 722 mmHg 56%
    09:00 +14°C° 0 mm 1 mps 721 mmHg 49%
    10:00 +15°C° 0 mm 1 mps 721 mmHg 42%
    11:00 +18°C° 0 mm 1 mps 721 mmHg 36%
    12:00 +19°C° 0 mm 1 mps 720 mmHg 33%
    13:00 +20°C° 0 mm 1 mps 720 mmHg 30%
    14:00 +20°C° 0 mm 2 mps 719 mmHg 27%
    15:00 +20°C° 0 mm 1 mps 719 mmHg 28%
    16:00 +20°C° 0 mm 1 mps 718 mmHg 29%
    17:00 +20°C° 0 mm 1 mps 718 mmHg 29%
    18:00 +18°C° 0 mm 1 mps 718 mmHg 34%
    19:00 +15°C° 0 mm 1 mps 717 mmHg 38%
    20:00 +13°C° 0 mm 1 mps 717 mmHg 42%
    21:00 +12°C° 0 mm 1 mps 717 mmHg 43%
    22:00 +12°C° 0 mm 1 mps 717 mmHg 44%
    23:00 +11°C° 0 mm 1 mps 717 mmHg 44%

    26 March, Tuesday

    Time Temperature Precipitation Wind Pressure Humidity
    00:00 +11°C° 0 mm 1 mps 717 mmHg 45%
    01:00 +10°C° 0 mm 1 mps 717 mmHg 45%
    02:00 +10°C° 0 mm 1 mps 717 mmHg 45%
    03:00 +9°C° 0 mm 0 mps 717 mmHg 45%
    04:00 +8°C° 0 mm 0 mps 717 mmHg 46%
    05:00 +8°C° 0 mm 0 mps 717 mmHg 46%
    06:00 +9°C° 0.1 mm 1 mps 717 mmHg 52%
    07:00 +9°C° 0.1 mm 3 mps 718 mmHg 57%
    08:00 +8°C° 0.1 mm 4 mps 719 mmHg 63%
    09:00 +8°C° 0.1 mm 4 mps 719 mmHg 62%
    10:00 +8°C° 0.1 mm 4 mps 719 mmHg 62%
    11:00 +10°C° 0.1 mm 4 mps 719 mmHg 62%
    12:00 +9°C° 0 mm 5 mps 719 mmHg 58%
    13:00 +9°C° 0 mm 5 mps 719 mmHg 55%
    14:00 +10°C° 0 mm 5 mps 719 mmHg 52%
    15:00 +9°C° 0 mm 5 mps 719 mmHg 54%
    16:00 +8°C° 0 mm 5 mps 718 mmHg 55%
    17:00 +8°C° 0 mm 5 mps 718 mmHg 57%
    18:00 +7°C° 0.1 mm 5 mps 719 mmHg 59%
    19:00 +6°C° 0.1 mm 5 mps 719 mmHg 62%
    20:00 +5°C° 0.1 mm 5 mps 720 mmHg 65%
    21:00 +4°C° 0.2 mm 4 mps 720 mmHg 65%
    22:00 +4°C° 0.2 mm 4 mps 720 mmHg 66%
    23:00 +4°C° 0.2 mm 4 mps 721 mmHg 66%

    27 March, Wednesday

    Time Temperature Precipitation Wind Pressure Humidity
    00:00 +4°C° 0.2 mm 4 mps 721 mmHg 69%
    01:00 +3°C° 0.2 mm 3 mps 721 mmHg 73%
    02:00 +3°C° 0.2 mm 3 mps 721 mmHg 76%
    03:00 +3°C° 0.3 mm 3 mps 722 mmHg 78%
    04:00 +3°C° 0.3 mm 3 mps 722 mmHg 80%
    05:00 +3°C° 0.3 mm 3 mps 722 mmHg 82%
    06:00 +3°C° 0.2 mm 3 mps 723 mmHg 81%
    07:00 +3°C° 0.2 mm 3 mps 723 mmHg 81%
    08:00 +3°C° 0.2 mm 3 mps 723 mmHg 80%
    09:00 +4°C° 0.1 mm 3 mps 724 mmHg 74%
    10:00 +5°C° 0.1 mm 3 mps 724 mmHg 69%
    11:00 +8°C° 0.1 mm 3 mps 724 mmHg 64%
    12:00 +7°C° 0.1 mm 4 mps 724 mmHg 62%
    13:00 +8°C° 0.1 mm 4 mps 724 mmHg 59%
    14:00 +8°C° 0.1 mm 4 mps 724 mmHg 57%
    15:00 +8°C° 0.1 mm 4 mps 724 mmHg 57%
    16:00 +8°C° 0.1 mm 4 mps 724 mmHg 58%
    17:00 +7°C° 0.1 mm 4 mps 724 mmHg 59%
    18:00 +7°C° 0.1 mm 3 mps 724 mmHg 64%
    19:00 +5°C° 0.1 mm 3 mps 725 mmHg 70%
    20:00 +5°C° 0.1 mm 2 mps 725 mmHg 75%
    21:00 +5°C° 0 mm 2 mps 726 mmHg 78%
    22:00 +4°C° 0 mm 2 mps 726 mmHg 80%
    23:00 +4°C° 0 mm 2 mps 726 mmHg 83%
    Show more